Regional Weather Roundup
Issued by NWS Binghamton, NY

Home | Current Version | Previous Version | Text Only | Print | Product List | Glossary On
Versions: 1 2 3 4 5 6 7 8 9 10 11 12 13 14 15 16 17 18 19 20 21 22 23 24 25 26 27 28 29 30 31 32 33 34 35 36 37 38 39 40 41 42 43 44 45 46 47 48 49 50
000
ASUS41 KBGM 170610
RWRBGM

REGIONAL WEATHER ROUNDUP
NATIONAL WEATHER SERVICE BINGHAMTON NY
200 AM EDT THU AUG 17 2017

Note: "fair" indicates few or no clouds below 12,000 feet with no
significant weather and/or obstructions to visibility.

* = Station(s) that does not report precipitation, such as rain,
snow, etc, also no thunder or fog.

NYZ009-015>018-022>025-036-037-044>046-055>057-062-170700
...Central New York...

CITY           SKY/WX    TMP DP  RH WIND       PRES   REMARKS
Binghamton     CLEAR     57  53  86 NE5       30.11S
Cortland       FAIR      52  52 100 CALM      30.11S
Dansville      CLEAR     60  58  92 SE5       30.10S
Elmira         CLEAR     58  58 100 CALM      30.09S
Seneca Falls   CLEAR     55  54  94 CALM      30.09S
Ithaca         CLEAR     53  52  96 E3        30.11S
Hamilton       CLEAR     46  45  93 CALM      30.11S
Hornell        CLEAR     57  55  94 CALM      30.14S
Monticello     CLEAR     56  54  93 NW3       30.11S
Oneonta        CLEAR     52 N/A N/A CALM      30.11S
Penn Yan       CLEAR     56  53  90 CALM      30.10S
Rome           CLEAR     51  50  96 CALM      30.11R
Sidney         CLOUDY   N/A N/A N/A CALM      30.11S HAZE
Syracuse       CLEAR     55  52  89 CALM      30.08S
$$

PAZ038>040-043-044-047-048-072-170700
...Northeast Pennsylvania...

CITY           SKY/WX    TMP DP  RH WIND       PRES   REMARKS
Hazleton         N/A     55  50  82 CALM      30.12S HAZE
Scranton       CLEAR     63  59  87 E6        30.08S
$$
&&
KEY
WCI = Wind Chill Index
VSB = Visibility
HX  = Heat Index
$$



USA.gov is the U.S. government's official web portal to all federal, state and local government web resources and services.